This is the latest recevied weather packets stored in our database for station/object KU9TRY. If no packets are shown the sender has not sent any weather packets the latest 10 day(s).
| Time | Temp. | Humidity | Pressure | Rain* | Wind** | Luminosity | Snow |
|---|---|---|---|---|---|---|---|
| 1777696109 | 9.44° C | 75% | 1016.9 hPa | 0 mm | - | 0 W/m² | - |
| 1777695806 | 8.89° C | 78% | 1016.8 hPa | 0 mm | - | 0 W/m² | - |
| 1777695504 | 8.89° C | 76% | 1016.8 hPa | 0 mm | - | 0 W/m² | - |
| 1777695200 | 8.33° C | 79% | 1016.7 hPa | 0 mm | - | 0 W/m² | - |
| 1777694898 | 8.33° C | 83% | 1016.7 hPa | 0 mm | - | 0 W/m² | - |
| 1777694595 | 7.78° C | 83% | 1016.6 hPa | 0 mm | - | 0 W/m² | - |
| 1777694290 | 8.33° C | 80% | 1016.6 hPa | 0 mm | - | 0 W/m² | - |
| 1777693987 | 8.89° C | 78% | 1017 hPa | 0 mm | - | 0 W/m² | - |
| 1777693685 | 8.33° C | 78% | 1016.9 hPa | 0 mm | - | 0 W/m² | - |
| 1777693383 | 8.33° C | 78% | 1017 hPa | 0 mm | - | 0 W/m² | - |
| 1777693081 | 8.89° C | 79% | 1016.9 hPa | 0 mm | - | 0 W/m² | - |
| 1777692778 | 8.89° C | 78% | 1017 hPa | 0 mm | - | 0 W/m² | - |
| 1777692475 | 8.89° C | 77% | 1017.5 hPa | 0 mm | - | 0 W/m² | - |
| 1777692171 | 8.89° C | 76% | 1017.2 hPa | 0 mm | - | 0 W/m² | - |
| 1777691869 | 9.44° C | 78% | 1017.1 hPa | 0 mm | - | 0 W/m² | - |
| 1777691567 | 9.44° C | 76% | 1017.4 hPa | 0 mm | - | 0 W/m² | - |
| 1777691265 | 9.44° C | 73% | 1017.2 hPa | 0 mm | - | 0 W/m² | - |
| 1777690963 | 9.44° C | 73% | 1017.1 hPa | 0 mm | - | 0 W/m² | - |
| 1777690660 | 9.44° C | 73% | 1017.4 hPa | 0 mm | - | 0 W/m² | - |
| 1777690358 | 9.44° C | 73% | 1017.1 hPa | 0 mm | - | 0 W/m² | - |
| 1777690055 | 9.44° C | 71% | 1017.1 hPa | 0 mm | - | 0 W/m² | - |
| 1777689753 | 9.44° C | 68% | 1017.1 hPa | 0 mm | - | 0 W/m² | - |
| 1777689451 | 9.44° C | 68% | 1017.1 hPa | 0 mm | - | 0 W/m² | - |
| 1777689148 | 10° C | 71% | 1016.9 hPa | 0 mm | - | 0 W/m² | - |
| 1777688846 | 10° C | 66% | 1016.9 hPa | 0 mm | - | 0 W/m² | - |
* Rain latest hour (hover to see other rain measurements)
** Current wind speed in m/s (hover to see current wind gust speed)